Theta_e
286 288 288 288 287 287 288 287 287 287 286 286 286 285 285 285 285 285 283 283 283 283 283 283 283 283 283 282 282 281 280 280 280 280 279 279 279 279 278 278 278 277 277 276 276 276 276 276 275 275 275 275 275 275 275 275 275 275 275 274 274 274 273 273 271 272 274 275 275 274 274 274 273 274 273 274 274 275 277 276 276 276 276 276 276
287 287 287 288 287 288 287 287 286 286 285 285 286 286 285 285 285 284 284 284 283 284 283 283 283 283 282 282 282 281 281 280 280 280 279 279 279 279 278 277 277 277 277 276 276 276 276 275 275 275 275 275 275 274 274 274 274 274 274 274 273 273 274 273 272 271 271 273 272 274 273 275 272 274 273 273 273 275 275 275 276 276 276 276 276
285 286 286 286 287 287 286 286 285 285 286 286 286 286 286 285 284 284 284 283 283 283 284 283 283 283 282 282 282 281 281 281 280 280 280 279 279 278 278 278 277 277 276 276 276 276 276 276 275 275 275 274 274 274 274 274 274 273 273 273 273 273 273 273 272 271 271 271 273 272 273 273 273 273 273 274 275 275 275 275 275 276 277 277 277
285 285 285 286 285 285 285 285 285 285 285 286 286 286 286 285 284 284 284 283 283 283 283 284 283 282 282 282 282 281 281 281 280 280 280 279 279 278 278 278 278 277 277 277 276 276 276 276 275 275 275 274 274 273 273 273 273 273 273 273 273 272 272 273 273 271 271 269 271 271 273 272 272 274 275 275 275 275 275 275 276 276 276 277 277
285 285 284 284 284 284 284 284 285 285 285 286 286 286 286 286 285 284 284 283 283 283 283 283 283 282 282 282 282 281 281 281 280 280 280 280 279 279 278 278 278 278 277 277 278 276 276 276 275 275 274 274 273 273 273 272 273 273 272 272 272 272 272 272 272 272 270 270 270 272 272 272 273 274 275 274 274 274 275 275 276 276 276 277 277
285 285 284 284 284 283 284 284 285 285 286 286 286 286 286 285 285 284 284 284 283 282 282 283 283 282 282 282 282 281 281 280 280 280 279 279 279 279 278 278 278 278 277 277 277 277 276 276 275 274 274 273 273 273 273 272 272 272 272 272 272 272 271 271 271 271 270 270 270 270 272 273 273 274 274 274 274 274 275 275 275 276 275 275 276
285 284 284 283 283 284 284 284 285 286 286 286 286 286 285 285 285 284 284 283 283 282 282 282 283 283 283 282 281 281 280 280 280 279 279 279 279 278 278 277 277 277 277 277 277 276 276 276 275 274 274 274 273 273 272 272 272 272 272 271 271 271 271 271 271 270 270 270 271 272 272 274 274 273 274 275 275 275 274 274 274 276 276 276 276
286 285 284 284 283 284 284 285 285 285 285 285 285 285 285 285 285 284 283 283 283 282 282 282 282 283 282 282 281 281 280 280 279 279 279 279 278 278 278 277 277 276 276 276 276 275 275 275 275 274 274 274 274 273 273 272 272 271 272 271 271 271 270 270 270 270 270 271 271 272 273 273 274 275 276 275 274 274 275 274 273 274 275 276 276
287 286 284 283 284 285 285 284 284 284 284 284 284 284 284 284 284 284 283 283 283 282 282 282 282 281 281 281 281 281 280 280 280 279 279 278 278 278 277 277 276 276 275 275 275 274 274 274 274 274 274 276 277 276 275 275 272 271 271 271 270 270 270 270 270 270 271 271 271 273 273 273 274 274 274 273 273 273 275 275 274 274 274 275 276
286 286 286 286 286 285 284 284 284 284 283 283 284 284 284 283 283 283 283 282 282 281 281 281 282 281 281 280 280 280 280 280 281 283 282 279 278 278 277 277 276 275 275 274 273 274 273 273 274 276 277 277 277 278 278 278 277 273 272 271 270 270 269 269 270 271 271 271 272 272 272 273 274 273 273 274 275 275 275 274 273 274 274 274 275
285 285 285 286 286 285 285 285 284 283 283 283 283 283 283 283 282 282 282 281 281 281 281 281 281 281 281 280 280 280 279 279 283 284 284 283 279 277 277 276 276 275 274 273 273 273 273 273 273 276 277 277 277 279 279 279 278 277 277 276 275 271 270 270 271 272 272 272 273 273 273 273 274 274 274 274 275 275 274 274 274 274 273 272 271
285 285 285 285 285 285 285 284 284 284 283 282 282 282 282 281 281 281 280 280 280 280 280 281 281 281 280 280 279 279 279 282 284 285 285 285 282 277 277 276 275 274 274 273 273 273 273 272 273 274 275 275 275 276 278 279 279 279 278 278 278 277 277 274 273 273 273 273 273 274 274 274 274 274 274 275 274 274 274 274 274 274 274 273 273
285 285 285 284 284 284 284 283 283 283 283 282 281 280 280 281 280 279 279 280 280 280 280 280 280 280 280 279 279 279 278 282 284 285 285 285 284 280 276 276 275 274 274 273 273 273 273 272 272 273 274 277 276 275 275 276 279 279 279 279 279 279 280 280 280 277 277 275 274 274 275 274 274 274 275 274 275 273 274 274 275 275 275 274 275
284 284 284 284 284 283 283 283 282 282 281 281 280 279 279 281 281 281 279 279 280 280 280 280 280 280 279 279 278 278 278 281 284 285 285 285 285 281 276 276 275 275 274 274 274 273 273 272 272 271 273 275 275 274 274 275 276 277 278 278 278 279 281 282 282 282 281 278 276 274 275 276 274 275 275 276 275 274 274 274 275 275 275 274 274
283 283 283 283 283 283 282 281 281 281 281 280 279 279 279 280 280 280 280 280 279 279 279 279 279 279 278 279 278 278 277 282 284 285 285 286 285 282 276 275 275 274 274 274 274 274 273 273 273 272 272 273 274 274 274 274 274 275 275 275 275 274 274 275 275 275 276 275 275 275 275 276 275 276 276 277 277 276 276 276 276 275 274 274 273
282 282 282 282 282 282 281 281 281 281 280 279 279 280 280 280 280 279 278 278 279 279 279 279 279 278 278 278 277 276 276 282 284 285 286 286 286 280 275 275 274 274 274 274 274 274 274 273 273 273 273 273 276 279 277 274 273 271 271 271 271 272 273 275 277 277 276 276 276 276 277 277 279 278 279 279 279 279 278 277 275 273 270 268 266
282 282 281 281 281 280 280 280 279 279 279 278 279 279 279 279 279 278 278 278 278 278 278 278 278 278 277 277 277 277 276 280 283 285 286 286 285 278 275 274 274 274 273 274 274 274 274 274 274 273 274 273 277 281 280 277 271 270 270 270 270 271 272 275 278 279 280 280 281 281 281 282 282 282 282 282 279 279 276 272 270 269 267 265 265
283 283 282 281 280 280 279 279 279 278 277 277 277 278 277 277 278 277 277 277 277 277 277 277 277 277 277 276 277 276 276 279 283 285 286 286 284 277 275 274 273 273 273 273 273 274 274 276 276 274 274 274 279 281 281 277 271 270 270 270 270 271 273 275 276 277 279 279 280 280 280 280 280 280 280 279 279 278 273 269 269 267 264 264 263
282 282 283 282 281 280 279 279 279 278 278 278 276 276 276 276 274 273 274 275 276 276 276 276 275 275 276 276 278 277 275 277 282 284 285 286 283 276 274 273 272 272 272 272 273 274 274 277 277 276 275 275 280 282 282 278 272 271 271 271 271 272 273 275 275 274 275 275 274 274 275 276 275 273 273 275 276 275 271 268 267 264 263 263 264
282 283 283 282 282 281 281 279 279 279 278 279 278 276 275 273 272 272 272 274 273 272 273 274 274 274 275 275 275 277 275 275 280 284 285 286 284 276 274 273 272 272 272 272 272 273 274 275 277 279 279 279 280 282 281 280 274 274 274 273 272 272 275 273 274 275 274 274 274 274 274 273 272 272 271 270 269 268 269 268 268 267 265 265 265
282 283 283 282 282 282 281 280 280 279 278 278 278 276 274 274 273 272 272 271 271 271 272 273 274 273 273 274 274 275 275 275 278 283 285 286 284 278 274 273 273 273 273 273 273 272 273 274 275 279 280 280 280 281 281 281 279 275 275 274 274 274 275 273 275 276 274 272 270 269 269 268 267 267 267 267 267 267 268 269 269 269 267 265 264
282 282 281 281 281 281 281 281 280 279 278 277 277 277 276 274 274 273 272 270 269 271 273 273 273 272 272 273 273 273 275 276 275 281 284 285 285 280 275 274 275 274 273 273 273 273 273 274 274 278 280 280 280 280 280 280 281 276 276 278 278 278 276 274 270 268 267 266 265 265 264 262 261 261 263 264 266 267 267 268 269 269 269 269 268
280 280 279 279 280 280 280 280 279 278 278 277 276 277 276 274 273 273 273 272 272 272 272 272 272 271 271 271 272 273 273 275 278 278 283 285 286 282 279 277 278 275 274 273 273 273 273 273 274 278 280 280 280 280 281 281 280 278 279 279 279 279 274 267 267 265 263 262 261 260 260 259 258 260 262 264 266 267 268 268 269 269 269 269 270
278 278 278 278 278 279 279 280 279 278 277 276 276 276 275 274 273 273 273 273 272 272 272 271 271 271 270 270 271 272 272 273 276 279 280 284 286 284 281 279 280 275 275 274 274 273 273 273 274 278 280 280 280 281 281 281 278 279 279 279 278 273 266 265 263 261 260 259 258 258 258 259 260 261 263 265 267 267 268 268 268 269 269 269 269
276 276 276 276 277 277 278 279 279 277 276 276 275 275 275 273 272 273 272 272 272 272 272 272 271 271 271 270 270 270 271 272 273 277 280 282 285 285 283 281 281 279 275 274 274 274 274 276 277 278 279 280 280 280 280 279 279 278 277 276 271 265 263 261 259 257 257 257 258 258 259 261 263 264 266 266 267 267 267 267 267 268 268 268 269
274 273 274 274 275 276 276 277 278 278 276 276 275 276 275 274 273 273 272 272 272 272 272 271 271 271 271 270 270 270 270 271 272 274 278 280 282 284 283 282 281 280 276 274 275 276 277 277 277 278 279 279 278 275 271 273 276 275 274 269 264 262 260 258 257 257 257 257 258 259 260 262 264 265 266 266 265 264 265 264 264 265 265 266 266
272 272 272 273 273 274 275 276 277 278 276 275 275 275 275 274 274 273 272 272 272 272 272 272 271 271 271 271 270 270 269 270 271 272 275 277 280 282 283 280 281 280 275 274 276 275 276 276 276 278 277 277 274 273 272 272 268 266 263 263 261 261 260 258 258 258 259 259 260 261 262 263 264 263 263 263 263 264 265 264 264 264 265 265 265
270 270 270 270 271 273 274 274 275 276 276 276 275 274 274 274 274 273 273 273 272 272 272 272 271 271 271 272 270 269 268 269 270 271 273 275 278 280 281 279 278 276 273 274 274 275 275 277 277 274 271 269 267 265 265 263 263 262 261 260 259 261 262 265 265 263 263 263 262 261 260 261 260 261 262 262 262 263 264 264 264 264 265 265 264
269 268 268 269 270 272 273 273 274 275 275 276 275 275 275 275 274 274 276 276 275 274 274 274 273 273 273 272 271 269 269 269 270 274 273 277 277 278 279 278 277 275 275 277 274 273 272 269 266 266 265 264 263 262 261 261 260 260 260 259 258 257 256 257 257 257 258 258 259 259 259 259 259 260 261 261 262 262 264 264 264 264 265 265 264
266 266 267 268 269 270 270 271 272 272 273 274 275 275 276 279 278 276 275 278 279 279 279 276 275 274 273 274 273 271 270 271 274 276 277 278 280 281 281 281 280 276 277 279 274 270 268 267 266 265 264 263 262 262 261 260 259 258 258 262 260 258 258 258 258 258 259 259 260 259 259 259 259 259 260 260 261 262 264 266 264 265 264 264 263
265 266 266 267 268 268 268 268 269 270 271 272 273 273 274 275 279 280 280 279 279 279 280 280 280 279 275 273 274 277 276 275 276 277 277 278 280 281 282 281 281 279 279 274 270 268 267 266 265 264 263 263 263 262 260 260 259 259 258 259 259 260 261 260 260 259 260 259 259 258 259 258 259 259 260 261 261 262 263 264 264 264 264 264 263
264 264 265 265 266 267 266 267 267 268 269 270 271 272 272 272 273 278 280 280 280 280 280 280 281 281 280 277 274 273 276 277 277 277 278 279 279 280 281 282 281 280 279 276 269 267 267 266 264 264 263 262 262 261 260 260 259 258 258 258 258 259 259 259 261 261 259 258 258 258 258 259 259 260 260 261 262 263 263 263 264 264 264 264 264
262 263 263 264 264 265 265 266 266 267 268 269 270 272 271 271 271 271 274 279 280 281 280 280 280 281 281 280 279 276 276 277 278 278 278 279 280 280 281 282 281 281 279 272 268 267 266 266 264 263 263 262 261 259 259 259 258 258 258 258 258 259 260 261 262 261 259 259 260 259 259 259 259 260 261 262 262 262 263 263 264 264 264 263 263
262 262 262 263 263 263 264 265 265 266 268 269 270 272 272 273 272 272 272 272 273 277 280 281 280 280 281 281 280 279 278 278 278 278 279 279 280 280 281 280 281 281 277 270 268 266 265 265 264 262 262 262 260 259 258 258 258 258 258 259 259 259 260 261 260 259 258 257 257 257 258 258 259 259 260 261 262 263 263 264 264 263 264 264 263
261 262 264 264 263 264 265 266 267 268 269 270 271 272 272 272 272 272 272 271 271 271 272 274 278 280 278 279 280 280 279 278 279 279 279 279 280 281 281 278 276 276 273 269 268 266 264 264 263 261 260 259 259 258 258 258 258 258 258 257 257 258 258 258 258 257 256 256 257 257 258 259 259 261 261 261 262 263 264 264 264 264 263 263 262
260 261 261 262 263 263 264 264 265 266 266 267 268 270 271 272 272 272 272 272 271 271 272 272 273 277 280 280 280 280 280 279 279 279 279 280 280 281 276 275 274 274 269 267 267 265 264 264 262 261 260 259 259 258 258 257 258 257 257 256 256 257 256 256 256 256 257 258 259 260 261 259 259 260 261 262 263 264 264 264 264 264 263 262 262
259 260 260 261 262 262 263 264 265 268 270 270 270 271 272 272 272 272 271 271 271 271 271 272 272 272 276 277 278 279 280 279 279 279 279 280 281 279 276 275 274 270 266 266 265 264 263 262 262 260 259 258 258 257 257 257 257 256 258 257 256 256 255 255 255 257 258 259 258 257 257 257 259 260 261 262 264 264 265 265 264 264 264 263 263
259 259 259 260 261 261 262 262 263 265 264 265 265 266 268 271 271 271 270 270 270 270 270 271 272 271 271 273 277 277 277 279 279 279 279 279 278 277 275 273 271 268 266 265 263 263 262 261 260 259 258 257 256 256 256 256 256 255 255 255 256 255 258 259 260 258 257 256 256 256 258 258 259 261 263 263 264 264 265 265 264 263 262 262 261
259 261 262 262 264 263 263 263 264 264 264 265 264 265 266 267 269 270 270 270 270 270 270 270 271 271 272 273 274 276 276 274 274 274 274 275 276 276 274 271 269 267 265 263 262 261 260 259 258 257 256 256 255 255 255 254 254 254 254 254 254 254 255 254 254 254 255 256 256 257 257 258 260 262 263 264 264 265 265 264 263 262 261 260 260
260 260 262 263 263 263 264 264 265 265 265 265 266 266 267 267 268 269 269 269 269 269 269 270 270 271 272 274 273 274 273 273 273 273 274 274 274 273 271 268 266 263 261 261 261 260 258 257 256 255 255 254 254 254 254 254 253 253 253 253 253 253 254 253 253 254 254 255 255 256 257 259 261 263 264 265 265 265 265 264 262 261 261 260 260
260 260 262 263 263 263 264 264 264 264 265 267 268 268 268 269 269 269 269 269 269 269 269 270 270 272 273 273 276 276 273 273 273 273 273 272 269 267 267 266 264 262 261 260 259 258 256 255 255 254 254 254 254 253 253 253 253 252 252 253 253 254 253 252 253 253 254 255 256 257 258 260 262 263 263 264 267 266 265 263 262 261 261 261 260
260 261 261 262 263 264 264 264 265 266 266 267 268 268 269 269 269 269 269 269 269 269 269 269 271 271 273 276 276 277 274 273 273 269 266 266 266 265 265 264 263 261 260 259 258 256 255 254 253 253 252 252 252 252 252 251 252 251 251 251 252 252 252 253 253 254 254 255 256 258 260 262 263 264 265 266 265 264 263 262 261 261 260 260 260
260 259 259 260 260 260 261 262 263 264 266 268 268 268 269 269 269 269 269 269 269 269 269 269 270 271 272 276 276 277 273 270 265 266 265 264 263 262 261 260 259 258 258 257 257 256 255 253 253 252 252 252 253 252 252 251 251 251 251 252 252 253 253 253 254 254 255 256 258 260 261 262 263 263 264 265 264 263 262 261 261 260 260 260 260
259 259 260 260 260 261 261 262 263 263 263 264 266 269 269 269 269 269 268 268 268 269 269 269 269 270 271 273 275 274 267 265 264 263 262 261 260 259 259 257 257 256 256 255 255 255 254 253 252 251 251 251 251 251 251 251 252 252 252 252 252 253 252 253 254 254 255 257 259 260 261 262 263 264 264 264 263 262 261 261 260 260 260 260 260
258 258 258 258 259 259 259 260 261 262 264 265 265 267 268 269 268 268 268 268 268 268 269 269 269 269 270 272 269 265 263 263 261 260 259 259 259 258 257 255 254 253 252 252 252 252 252 252 251 250 249 249 249 249 250 250 250 251 251 252 251 252 253 253 253 254 256 257 258 260 261 262 263 264 264 263 262 261 261 260 260 260 259 259 259
258 259 259 259 259 260 260 260 262 262 263 264 265 266 268 268 268 268 268 268 268 268 268 268 268 269 267 263 262 262 261 260 260 259 258 258 256 255 255 254 253 252 251 251 251 251 251 251 250 251 250 249 249 249 249 249 250 250 250 250 251 252 252 253 253 255 256 258 259 261 262 263 263 264 264 263 262 261 261 260 260 259 259 259 260
259 259 259 259 259 260 261 261 262 262 263 265 266 267 267 267 267 267 266 267 267 266 267 268 266 262 262 262 261 260 260 259 258 258 257 255 253 253 253 252 252 251 250 250 250 250 250 250 250 250 249 249 249 249 249 249 249 249 250 250 250 251 252 253 254 256 257 259 261 262 262 262 263 264 263 262 261 261 260 260 259 259 259 260 260
260 260 260 260 260 260 260 261 262 262 264 266 267 266 266 266 266 265 265 265 265 265 265 262 261 261 260 260 259 259 259 258 258 256 254 252 252 252 252 251 250 250 250 249 249 249 249 249 249 249 249 249 249 249 249 249 249 248 248 250 250 251 253 255 255 257 259 261 262 263 263 264 264 262 261 261 261 261 260 259 260 259 259 260 260
261 261 261 261 261 261 261 262 262 264 265 265 265 265 264 264 264 264 264 264 265 263 261 261 260 260 259 258 258 258 257 257 256 255 254 252 251 251 251 251 250 250 249 248 248 248 248 248 248 248 248 248 248 248 249 249 249 249 249 249 251 254 256 257 258 258 261 262 263 264 266 266 263 260 260 260 261 260 260 259 259 260 260 260 260
262 262 263 263 262 262 263 263 264 265 264 264 264 263 263 263 262 263 263 263 262 261 260 260 259 258 257 257 257 257 257 256 254 252 251 251 251 251 250 249 249 249 248 248 247 247 247 247 247 247 247 247 247 248 248 248 248 249 249 250 254 257 258 260 261 262 263 265 266 267 267 264 260 259 259 259 260 260 259 260 260 260 259 259 259
261 261 261 262 262 263 263 263 263 263 263 262 262 262 261 261 261 262 262 261 260 259 258 258 257 257 257 257 257 256 256 255 254 252 251 251 250 250 250 249 249 249 248 248 247 247 247 247 247 247 247 248 248 248 248 248 248 249 251 254 256 259 261 263 264 266 267 267 268 268 264 262 260 261 261 261 260 259 260 260 260 259 259 259 259
Wind_Speed
6 10 10 12 10 12 11 9 10 7 6 7 9 8 8 10 11 10 6 10 10 12 12 13 13 14 14 14 14 14 14 14 12 12 13 13 12 12 11 12 13 10 9 10 8 10 10 10 10 8 8 9 8 7 7 7 7 7 6 7 7 6 8 7 8 7 4 2 2 3 2 3 3 4 4 3 3 4 6 7 8 8 8 8 8
7 5 5 7 9 11 10 8 9 8 8 9 10 10 10 11 10 7 12 10 11 13 14 13 13 15 15 15 15 14 14 14 14 13 14 14 14 11 12 14 13 11 10 12 11 9 10 10 10 9 9 9 8 9 8 8 8 8 7 8 8 8 7 8 7 5 4 2 3 3 3 4 4 3 4 3 4 5 7 8 7 8 8 8 7
5 5 7 8 10 8 6 7 5 8 12 12 13 13 12 9 7 10 10 8 8 10 11 11 12 12 13 13 14 15 15 15 14 14 15 16 16 14 13 14 15 14 14 13 12 10 11 11 11 10 8 9 9 8 8 9 8 9 9 7 8 7 7 7 5 7 5 5 4 3 4 3 3 4 4 5 6 7 8 8 7 6 6 8 8
6 6 7 9 7 5 7 5 6 8 10 12 14 13 11 9 8 10 10 9 11 11 11 12 11 13 13 12 14 15 16 15 15 15 16 16 15 16 14 14 14 15 15 14 14 13 13 12 11 11 11 11 9 8 8 8 8 8 8 7 7 7 6 6 7 5 2 3 4 3 2 2 3 4 6 6 7 7 7 7 6 7 8 8 8
6 7 7 9 7 7 6 6 8 9 11 10 13 11 11 11 9 12 10 12 12 10 11 10 12 13 14 16 16 16 16 15 15 14 13 13 14 14 14 14 14 15 15 14 13 14 14 14 13 12 12 11 9 9 9 11 9 8 8 7 6 6 5 6 6 5 5 7 6 4 3 4 5 6 7 7 6 6 6 6 6 7 7 7 6
7 7 7 9 8 7 8 8 11 13 14 13 14 11 9 8 8 8 9 12 10 11 12 11 13 15 15 14 14 14 13 14 15 15 15 13 13 13 13 14 14 14 14 13 14 14 14 14 12 13 13 14 12 11 10 11 9 8 8 7 6 5 6 5 5 5 6 6 5 6 4 5 5 5 5 6 6 7 5 5 4 4 5 5 4
5 6 7 7 6 6 7 10 11 11 12 13 11 9 11 11 11 13 11 11 11 11 12 13 12 13 14 12 13 13 13 13 13 13 14 14 15 14 14 14 14 13 12 13 13 13 13 12 12 13 14 13 12 12 12 10 9 10 9 8 7 7 6 6 5 6 6 5 6 6 6 5 6 7 5 6 6 5 8 7 6 4 5 6 10
10 7 6 6 6 7 8 8 9 10 9 8 9 9 9 9 11 10 8 11 13 14 14 14 12 12 13 13 13 13 13 13 14 14 14 15 15 15 15 14 14 13 12 12 12 12 12 12 12 13 13 12 12 11 11 11 9 9 8 7 7 7 7 6 5 5 5 5 5 5 5 5 5 6 5 3 4 3 1 7 11 9 9 6 7
13 12 9 7 8 8 7 6 7 8 8 8 8 9 9 9 9 9 10 11 10 11 10 11 11 12 11 12 13 12 14 14 13 14 15 15 14 14 14 14 14 13 12 12 11 11 11 11 11 11 11 12 15 12 12 11 10 10 8 9 8 7 6 6 6 5 5 4 5 6 7 6 6 5 4 4 4 7 7 6 9 8 10 11 8
14 14 13 13 10 7 6 6 7 7 7 9 10 9 9 9 9 10 10 10 9 9 9 10 12 12 12 11 11 11 12 11 11 17 16 14 14 12 12 13 13 13 13 12 11 11 11 10 10 15 17 18 17 17 18 17 15 10 10 10 10 8 8 7 7 6 5 5 6 6 7 7 6 3 4 3 3 5 7 7 10 10 11 12 9
13 13 14 13 13 12 11 9 6 6 7 7 7 7 9 8 8 9 9 9 11 10 10 12 13 11 11 11 12 11 10 9 14 20 22 21 15 14 14 13 13 13 13 13 13 13 11 10 9 14 15 16 15 19 18 19 18 17 17 15 13 11 10 9 7 6 6 6 6 7 8 9 7 3 3 4 3 4 6 7 9 10 11 15 15
12 12 12 12 12 13 11 11 11 10 7 7 7 6 5 6 7 8 8 8 9 9 11 12 11 12 11 11 13 12 11 11 19 22 23 23 19 14 12 12 12 13 13 13 12 11 12 11 9 9 11 12 11 12 15 19 19 19 19 18 19 19 15 10 8 8 8 7 8 8 9 8 5 3 4 3 4 5 6 8 9 13 13 13 12
11 12 12 11 12 11 11 11 10 10 9 7 5 5 5 5 6 6 9 9 6 9 11 11 13 11 11 13 13 11 10 13 19 21 22 22 22 16 10 11 12 12 12 13 13 12 12 10 10 10 9 17 12 10 10 12 17 20 19 19 19 20 19 19 16 10 7 8 8 7 8 7 7 5 1 3 5 9 9 9 9 9 10 14 13
10 10 11 11 11 11 10 10 10 10 9 8 6 5 4 7 7 6 5 5 8 10 10 11 10 11 12 12 12 10 11 12 20 21 22 23 23 18 10 12 13 13 14 14 12 13 10 12 12 10 8 12 11 12 10 10 10 11 13 12 12 15 19 21 22 22 16 8 7 8 6 4 6 4 4 7 9 8 9 10 8 11 10 10 11
10 11 11 11 11 11 10 10 10 10 8 7 6 5 6 6 6 6 6 9 10 11 11 11 11 10 11 11 11 11 11 16 21 22 22 23 23 18 10 10 10 11 12 13 14 14 14 11 9 9 11 13 11 13 12 12 10 10 9 9 7 5 5 5 6 4 6 6 6 6 6 6 7 7 8 8 10 10 8 9 9 9 9 12 11
10 11 12 12 11 11 11 11 10 9 8 6 5 6 6 6 7 6 5 6 6 6 6 6 9 10 10 10 10 11 9 19 23 25 25 25 26 14 11 11 11 11 12 13 13 11 8 8 10 12 13 12 16 22 16 11 10 10 10 7 5 4 5 7 10 11 9 8 7 7 6 7 10 9 8 6 6 6 7 7 7 9 11 12 15
10 10 11 12 12 11 10 10 10 9 8 6 6 6 6 7 6 4 6 7 6 6 7 7 7 8 9 10 11 10 8 16 23 24 25 26 20 12 12 11 10 11 12 9 10 9 11 10 10 12 12 12 17 22 21 17 10 11 9 7 6 5 6 7 15 18 18 16 15 15 15 16 16 16 16 18 13 10 6 8 8 6 10 12 15
11 11 11 10 10 10 10 9 9 9 8 7 7 6 5 4 5 4 6 6 7 7 6 5 5 6 9 10 11 10 9 14 23 23 23 26 17 12 11 11 10 9 8 10 9 9 10 19 15 12 12 12 20 23 24 17 10 10 9 9 8 9 9 9 8 9 14 14 14 13 12 12 15 18 17 15 13 9 6 9 7 6 10 8 13
12 12 12 11 10 9 9 9 9 9 9 9 7 7 6 5 3 2 4 4 5 4 5 6 6 5 6 8 8 10 7 10 20 21 23 24 17 10 11 10 10 10 9 9 9 7 9 13 18 13 12 13 22 23 24 17 10 10 10 9 10 11 10 9 8 6 5 2 1 3 7 10 5 2 4 11 13 12 6 8 7 6 9 10 10
11 10 10 11 10 10 9 9 9 9 10 9 8 6 5 3 4 3 4 4 5 4 5 6 7 6 5 6 7 8 8 8 13 22 22 25 21 11 9 11 12 11 9 10 10 9 9 9 14 19 19 20 21 23 22 22 12 11 10 10 10 11 6 7 6 4 2 4 5 3 3 1 3 5 6 7 5 5 8 7 6 6 8 10 10
10 10 10 11 12 12 10 9 10 10 8 8 7 6 3 3 3 3 4 3 3 4 4 5 5 5 5 6 6 6 6 7 11 20 22 24 23 18 10 11 10 10 11 10 10 10 10 9 9 17 21 20 21 22 21 22 18 11 11 9 8 7 7 7 7 9 2 1 1 1 3 3 3 5 6 4 5 5 6 8 7 7 8 9 11
10 10 11 11 12 12 12 11 9 8 8 7 7 7 4 2 3 3 3 3 4 5 4 4 5 5 5 5 6 6 5 10 8 15 21 24 23 22 13 12 11 12 11 10 9 9 9 10 9 17 24 21 22 21 22 21 22 10 12 16 16 17 10 5 5 5 3 1 1 3 4 5 3 3 4 5 6 7 7 7 8 9 9 10 10
10 10 11 12 12 12 12 11 11 8 8 7 7 8 5 4 3 2 2 3 4 5 5 5 5 6 5 5 5 6 6 8 14 10 19 24 25 23 20 12 17 10 10 11 11 7 7 8 8 18 22 21 20 20 20 21 19 11 18 19 18 17 7 6 5 5 3 1 1 4 5 4 4 3 4 5 6 7 7 7 8 9 10 11 12
10 11 11 11 12 12 11 11 9 8 8 7 6 7 7 5 4 3 3 4 5 6 5 5 5 6 7 7 6 6 6 6 12 18 15 24 26 25 23 20 20 11 9 8 4 5 6 7 10 21 21 21 20 19 19 19 10 16 17 17 13 9 6 5 5 4 3 1 3 5 5 4 3 4 5 5 7 7 8 8 9 10 12 12 12
12 13 13 13 12 11 11 11 10 7 7 6 7 7 7 4 5 4 4 4 5 6 6 5 7 8 7 9 9 8 7 7 8 14 20 19 26 26 24 23 22 19 10 6 6 5 9 14 17 21 19 19 20 19 16 17 17 14 12 11 10 4 5 4 5 4 4 4 5 5 4 4 4 6 6 7 7 8 7 7 8 10 11 13 13
12 14 14 13 13 13 14 13 11 8 7 6 8 7 7 6 6 5 5 6 6 7 8 7 8 8 9 8 10 9 4 5 8 8 12 13 16 25 26 25 24 21 15 10 13 16 16 17 18 19 17 16 11 6 5 5 11 12 10 10 5 4 4 5 4 5 5 4 4 5 4 3 4 6 6 7 6 7 7 8 8 8 8 10 11
13 13 13 13 13 13 13 11 10 9 7 6 7 7 7 6 7 7 6 7 7 8 8 8 8 9 10 9 9 8 9 6 7 8 9 11 11 13 17 17 24 22 14 11 14 13 16 15 12 14 10 13 11 11 10 8 6 5 4 3 4 4 4 4 5 5 4 3 4 3 3 3 4 4 5 5 7 7 7 9 9 9 8 9 11
13 15 16 13 12 12 12 13 13 10 9 7 8 7 7 8 8 9 9 9 9 9 9 10 11 11 11 9 8 9 10 9 10 11 11 11 10 10 11 12 13 11 12 12 11 12 12 15 16 10 9 8 7 5 5 4 4 5 4 3 3 4 5 7 6 4 3 3 2 2 3 4 4 5 5 6 7 7 7 8 8 10 8 8 11
13 15 16 14 14 12 10 11 11 10 11 9 9 9 9 9 10 11 11 9 10 11 10 11 11 10 10 9 9 10 10 12 14 13 12 13 12 11 11 11 12 10 15 20 13 11 10 10 11 10 10 10 8 7 6 6 4 4 4 4 3 2 1 1 1 2 1 1 3 4 5 3 4 4 5 6 7 7 7 8 8 9 10 8 11
15 16 14 13 12 12 11 10 11 11 11 11 11 10 12 17 13 11 11 13 20 19 15 12 11 9 10 10 10 13 14 13 13 21 21 21 23 21 15 15 17 13 21 29 16 12 11 12 11 11 11 10 10 8 8 7 7 5 4 5 5 4 3 3 2 2 2 3 4 4 4 3 4 4 5 7 8 7 8 9 9 8 9 10 11
14 15 14 13 12 12 11 12 11 11 11 12 11 11 11 10 18 24 21 16 15 21 24 26 23 17 12 10 10 18 13 10 18 23 25 24 25 26 24 20 23 24 28 18 12 11 11 10 9 8 8 8 8 9 7 6 6 7 6 4 3 4 4 4 2 2 2 3 3 3 3 3 5 5 6 7 8 9 7 6 7 9 9 10 11
14 15 14 14 14 14 12 12 13 12 12 11 11 11 11 11 10 14 21 23 24 24 24 25 26 25 23 17 11 9 17 20 21 24 26 27 27 27 27 25 26 29 30 25 13 11 11 11 10 10 9 9 9 8 9 9 6 5 4 4 3 3 3 3 2 3 3 3 3 4 4 4 5 6 6 7 9 9 8 8 7 8 9 9 10
16 17 16 16 15 14 13 13 12 11 11 11 11 10 11 10 11 11 8 16 23 24 25 25 26 25 25 24 23 17 15 18 23 24 26 28 27 27 28 28 28 31 30 17 12 12 10 10 10 9 10 10 10 10 9 7 6 6 4 4 4 3 3 2 2 2 2 3 3 4 4 5 6 7 8 8 8 9 9 9 9 9 9 10 12
18 16 16 16 15 13 12 10 11 11 11 11 13 12 11 11 11 10 10 7 9 15 23 26 25 24 25 25 23 23 22 23 24 25 26 27 28 28 27 21 29 33 26 14 12 11 10 10 9 9 9 8 10 9 9 6 6 5 5 5 4 4 3 2 2 2 2 3 3 4 4 6 7 7 7 7 8 8 9 9 9 9 10 10 11
16 18 26 22 14 12 11 9 12 10 12 10 12 13 12 11 10 11 11 11 10 10 9 12 19 25 19 18 22 24 23 24 25 25 26 26 28 28 28 16 18 17 15 12 12 12 12 12 11 10 11 10 12 9 8 6 6 5 5 4 4 3 2 2 2 2 2 3 3 4 6 7 7 7 7 8 8 8 9 10 10 9 10 11 12
15 14 13 15 14 13 12 12 13 14 14 15 14 14 13 12 12 11 11 11 11 11 10 9 9 14 26 23 23 23 24 24 23 25 25 27 27 29 18 15 15 13 11 11 11 11 11 11 10 11 11 12 12 9 6 6 6 5 6 5 4 3 3 2 3 2 3 3 5 6 6 6 6 7 7 8 9 10 10 10 10 10 10 10 11
13 13 12 13 12 11 12 15 16 16 14 12 11 11 12 13 11 11 10 11 10 10 10 7 6 7 13 13 19 22 25 23 23 24 25 26 30 23 14 13 13 9 9 11 11 10 10 9 9 11 11 13 12 12 8 6 6 5 5 5 4 4 3 2 3 4 3 3 4 6 6 7 7 7 7 8 9 9 9 11 11 12 12 14 13
16 15 14 14 13 16 16 16 18 24 19 16 16 14 14 11 9 10 10 10 10 10 9 9 8 9 10 11 13 10 14 21 24 21 21 22 19 15 12 11 11 11 11 9 9 10 9 8 8 12 12 12 12 9 10 8 6 5 6 6 4 4 5 4 3 1 2 4 6 7 6 6 6 7 8 8 9 10 10 10 10 12 13 12 8
12 20 27 29 24 18 15 15 16 15 14 15 15 15 15 15 13 10 10 10 10 10 9 9 9 10 10 8 8 10 12 11 12 12 12 13 13 12 11 9 9 9 8 9 8 8 9 9 8 10 11 12 12 11 11 7 5 5 5 5 4 2 1 1 2 3 3 5 6 6 6 6 7 7 8 8 9 10 11 10 9 10 11 13 13
13 13 18 25 18 19 17 16 15 14 14 13 13 11 12 13 14 13 11 10 10 10 10 10 10 10 9 9 10 11 12 12 12 11 12 12 12 10 10 10 10 10 9 8 8 8 10 10 11 11 13 11 11 11 9 7 9 5 7 5 4 3 3 3 2 3 5 5 6 6 6 7 7 7 7 8 9 9 9 10 11 10 10 12 13
13 15 16 18 19 17 16 16 16 14 13 13 10 10 10 12 11 12 11 11 10 10 10 10 10 9 9 12 21 20 12 12 11 11 11 11 8 9 10 10 11 10 10 10 9 10 14 14 13 12 11 11 10 9 9 8 6 7 7 4 4 3 2 2 3 4 6 6 6 6 6 7 7 7 8 8 10 10 9 10 10 11 11 11 12
13 14 13 12 14 14 13 14 13 16 15 13 11 12 12 11 11 10 11 11 10 10 10 10 10 8 12 23 24 27 14 10 9 6 7 8 8 8 9 9 9 10 11 11 12 13 13 13 14 12 12 11 10 9 7 8 6 5 5 5 4 3 2 3 4 5 6 6 6 6 6 7 7 8 9 11 9 8 9 10 11 11 12 12 12
13 13 14 14 15 15 15 14 14 13 12 11 12 12 12 11 10 10 10 10 10 10 10 9 8 8 9 20 22 27 12 8 7 9 8 8 8 8 9 9 9 9 11 11 11 13 14 16 14 13 13 9 8 8 9 8 6 5 5 5 4 3 3 3 4 5 5 5 6 7 8 7 8 8 8 8 7 8 9 11 11 11 12 12 12
13 13 14 14 13 13 13 13 13 13 14 16 16 12 10 10 10 10 10 10 10 9 9 8 7 8 8 12 17 14 7 9 8 8 9 9 9 9 10 13 14 12 10 9 9 11 13 14 12 9 8 6 5 4 5 5 5 6 6 5 4 3 3 4 5 5 4 4 6 7 8 8 8 8 9 7 7 9 10 10 11 12 12 12 13
12 12 13 12 12 11 12 13 13 15 16 13 13 14 11 9 9 9 9 8 7 8 8 7 7 8 9 10 7 8 9 9 9 9 9 10 10 11 10 13 15 16 15 13 11 11 13 13 12 12 10 6 5 6 5 4 4 4 5 5 5 4 5 6 6 4 3 5 7 7 8 8 8 8 8 6 7 9 10 10 11 11 13 12 12
12 12 12 11 11 11 12 11 13 12 12 12 13 12 9 8 8 8 8 7 7 8 7 7 8 8 5 8 9 8 9 10 10 9 9 9 10 10 13 16 15 14 14 13 12 12 11 12 12 11 11 9 6 5 4 4 4 4 3 4 5 5 5 4 4 5 6 6 7 7 8 8 8 9 7 7 7 8 9 11 10 10 11 13 14
12 11 11 11 12 12 12 11 10 10 11 13 12 10 8 7 6 6 4 6 6 4 6 7 6 7 7 8 9 9 9 10 11 10 11 13 16 16 16 15 16 11 7 9 11 10 10 9 7 7 9 8 7 6 4 4 4 3 3 4 4 5 5 5 6 6 7 8 7 7 7 7 9 7 6 7 7 9 10 10 11 13 12 12 13
10 10 10 10 10 11 10 9 11 12 12 10 8 6 5 4 5 4 5 5 7 6 6 7 7 8 8 8 8 8 9 9 10 11 11 9 13 15 17 17 17 14 12 11 9 8 8 7 7 7 6 5 5 4 4 4 3 4 3 4 5 5 7 8 7 8 8 8 9 8 8 9 7 5 5 6 7 9 10 11 11 10 11 12 13
9 9 10 9 8 9 10 9 9 10 9 5 5 5 5 6 6 6 6 7 6 7 8 9 8 8 8 8 8 9 9 10 12 12 11 12 13 16 16 15 15 14 14 11 9 7 5 4 4 4 5 4 3 3 3 3 3 3 3 4 6 11 13 14 10 9 11 9 7 8 9 8 5 5 5 6 8 8 9 10 10 11 12 11 12
7 7 7 7 8 8 9 9 8 6 3 4 5 5 5 6 6 6 7 7 8 8 7 8 8 8 9 10 9 10 10 11 12 10 9 9 12 14 14 14 13 12 12 11 6 5 5 5 5 4 3 3 2 2 2 2 2 3 3 4 8 11 12 14 14 16 12 7 8 9 8 5 4 5 6 6 7 9 10 10 11 11 11 12 13
8 7 7 7 5 3 2 3 4 4 4 5 5 6 6 6 6 6 7 8 8 8 8 8 9 9 9 9 9 10 11 13 12 10 14 12 11 14 14 14 13 11 10 9 7 5 4 3 2 3 2 2 1 2 2 3 3 3 5 9 11 12 14 13 9 10 15 14 10 7 3 4 5 7 6 6 7 8 11 12 12 11 11 11 12
Wind_Direction
220 225 207 218 221 224 216 209 227 227 239 231 226 218 205 201 201 200 161 194 181 189 189 190 190 190 187 189 188 187 187 187 188 186 189 191 190 190 181 185 189 192 178 181 179 177 180 179 178 179 165 173 178 174 177 176 172 177 176 178 187 187 182 190 210 239 260 251 198 208 236 161 254 214 243 229 255 256 255 255 258 264 266 268 269
238 254 249 241 232 236 234 224 201 195 215 223 226 221 214 209 201 177 200 196 188 196 195 191 191 189 189 191 189 188 189 189 188 189 191 191 192 188 186 185 190 188 180 186 183 183 178 178 180 175 176 178 171 179 178 176 179 177 187 185 192 192 190 184 217 222 236 169 211 205 186 212 223 215 217 245 244 249 249 253 251 251 259 262 265
263 250 241 238 236 239 243 238 231 212 210 214 222 222 220 211 186 198 200 193 195 199 199 197 196 194 196 193 190 189 189 191 190 191 195 194 192 190 188 186 188 186 187 189 184 178 178 185 184 174 171 177 182 182 176 182 181 185 189 188 195 195 192 198 193 227 231 237 209 231 195 212 215 261 258 246 250 244 253 247 248 244 246 258 263
251 246 243 243 239 234 231 230 233 234 229 226 226 224 219 212 195 201 199 188 196 200 197 197 192 194 198 198 197 195 192 191 190 194 196 195 195 192 188 190 191 191 189 185 183 183 186 182 185 177 175 181 182 179 185 182 184 188 188 195 193 196 192 197 213 219 223 237 214 185 238 267 262 257 264 257 252 248 237 249 243 254 258 256 258
262 251 244 246 235 227 227 214 222 228 233 235 237 231 224 219 207 206 195 201 201 193 199 193 196 195 199 199 199 199 196 190 189 191 194 197 198 193 190 191 194 194 191 188 184 184 185 189 181 176 176 181 182 185 184 186 186 182 192 191 191 190 188 199 213 214 230 246 260 251 258 261 257 259 253 262 253 244 247 253 264 266 265 260 260
264 258 248 243 236 224 224 220 224 223 225 228 231 228 227 225 220 219 209 212 202 199 196 195 200 201 202 202 202 203 195 191 192 191 190 190 194 196 194 192 194 194 192 190 186 188 187 187 179 176 180 185 188 186 182 184 179 186 188 189 182 183 193 206 206 212 232 249 260 279 250 270 276 250 246 237 266 282 277 269 261 258 276 285 252
272 255 252 247 249 239 233 231 233 234 234 235 234 226 222 218 212 212 203 207 201 201 204 205 205 203 203 198 202 198 198 196 193 190 189 189 191 192 192 194 193 193 195 191 187 188 188 184 179 180 185 189 184 183 181 178 182 187 189 181 177 181 194 203 203 216 228 249 254 252 269 252 252 276 249 245 264 276 300 312 307 300 286 294 302
338 314 294 287 273 261 248 244 243 243 244 244 239 236 232 225 222 219 201 207 206 204 201 205 208 202 202 198 198 193 195 197 195 193 192 191 190 193 191 190 189 190 189 189 187 187 186 184 183 184 186 187 185 179 175 178 173 182 183 174 176 180 194 195 200 212 225 237 247 265 267 272 262 246 248 252 276 269 268 322 314 317 307 296 292
349 345 330 302 282 272 269 259 251 250 244 240 237 235 232 230 225 215 209 213 211 211 207 202 205 209 206 202 198 195 198 198 196 192 190 191 192 191 189 188 188 187 185 186 186 183 183 184 184 183 184 184 184 177 179 174 169 175 181 173 178 182 188 195 201 208 224 233 251 262 271 266 256 262 280 294 319 317 322 318 301 305 305 306 296
355 352 346 333 320 303 280 269 264 258 251 243 241 235 230 226 220 220 218 213 209 203 199 204 206 209 206 207 204 204 208 204 194 190 187 186 186 188 186 189 187 186 182 181 184 185 184 181 182 180 182 183 182 182 181 183 183 176 171 172 179 180 188 190 201 203 209 228 238 251 259 261 261 260 278 280 296 307 312 316 308 310 308 298 290
356 354 347 338 329 324 320 309 291 271 255 249 245 235 229 222 219 220 217 209 208 203 198 203 206 203 204 203 205 209 210 207 192 193 192 186 182 185 185 185 185 184 183 181 184 182 181 179 177 182 181 183 184 185 185 187 188 185 183 183 184 182 181 191 201 199 204 225 232 238 252 268 271 269 278 295 300 310 310 305 304 307 313 315 313
354 353 347 339 334 330 325 317 312 300 289 272 262 249 241 227 223 218 215 212 209 200 205 207 201 200 200 202 207 208 209 198 194 196 194 190 184 185 184 182 182 185 183 183 182 180 179 176 175 180 183 183 179 185 188 191 191 191 193 196 198 199 197 189 191 199 206 212 224 234 254 260 273 272 282 301 302 299 290 295 296 301 299 297 292
349 351 347 344 338 331 326 322 313 306 297 290 284 272 250 238 231 219 218 216 203 206 211 203 207 199 196 201 208 206 211 199 198 195 194 193 188 181 186 182 181 186 182 182 181 180 179 171 171 185 185 183 178 181 180 189 194 195 197 201 204 208 212 214 211 206 205 222 228 235 240 266 276 275 254 286 295 291 293 289 285 281 285 287 289
345 345 344 344 342 336 329 324 316 309 304 300 290 271 254 242 235 228 221 201 206 212 211 209 205 203 203 202 203 202 205 197 197 195 195 193 189 181 186 183 187 186 184 182 181 181 175 173 176 178 174 183 181 180 181 183 186 192 199 203 207 215 220 226 230 234 236 226 226 238 245 236 259 270 280 282 280 281 289 285 284 287 287 283 297
341 345 343 342 343 341 336 328 319 311 306 297 291 273 253 252 244 228 211 210 209 210 206 206 205 203 203 201 202 202 197 189 195 194 194 193 190 180 184 186 186 188 186 187 186 183 180 176 168 165 171 183 183 180 180 181 182 188 192 198 198 199 217 232 238 238 242 250 243 247 247 246 253 255 257 260 263 265 262 276 299 303 297 299 285
341 343 342 342 342 339 336 329 323 317 307 296 287 274 264 250 240 231 227 234 234 230 226 211 207 205 204 199 200 206 196 190 193 193 192 191 187 179 181 184 187 190 190 188 187 181 171 159 165 171 177 182 186 185 181 173 174 179 186 193 198 209 225 228 229 233 230 228 232 235 235 240 250 252 252 249 259 292 300 313 325 311 313 308 295
344 342 338 337 336 334 332 326 320 317 310 297 273 260 252 245 241 213 213 219 220 221 221 213 210 206 203 203 202 202 193 194 195 195 193 190 184 177 178 184 188 190 192 180 180 173 179 171 167 174 175 178 185 184 180 172 170 177 181 186 196 208 228 226 230 230 232 236 243 251 261 268 276 284 291 294 293 302 326 315 302 325 308 305 297
340 338 334 333 330 328 327 322 315 311 308 300 285 274 257 252 242 211 216 220 218 220 215 222 217 207 206 207 204 202 199 196 196 197 194 194 182 174 176 181 187 187 187 186 187 185 184 180 177 173 173 174 182 184 183 175 170 174 173 184 193 209 219 216 219 226 237 250 255 260 268 279 286 287 291 295 298 304 322 294 302 327 290 280 285
338 335 331 328 326 325 323 321 317 314 311 306 297 286 273 255 246 202 230 235 236 218 202 209 218 212 214 211 206 205 193 195 199 198 197 195 183 166 172 180 181 187 179 179 186 180 184 185 181 174 172 174 182 186 186 178 164 176 178 183 200 209 211 208 210 216 211 184 310 290 279 275 290 359 334 313 306 307 305 287 295 281 275 278 277
328 324 325 325 322 323 322 322 317 313 306 302 301 280 268 259 239 220 232 225 234 215 211 210 209 213 202 203 209 205 194 193 203 201 198 198 187 163 173 179 187 183 179 180 177 186 185 183 184 181 177 178 184 188 190 184 166 176 182 192 201 209 188 201 205 177 183 243 247 251 249 241 286 290 295 298 295 283 276 260 250 246 255 269 272
322 323 323 323 322 320 319 317 314 308 296 290 290 288 261 244 231 220 226 231 220 226 221 224 213 211 197 203 204 207 194 191 206 205 203 200 187 167 179 186 181 178 184 181 186 181 180 184 182 185 183 181 187 193 192 193 185 180 189 195 193 188 188 180 203 226 220 87 58 331 298 317 308 297 289 287 277 268 255 262 252 250 257 265 275
319 322 322 319 318 316 317 314 309 302 299 299 297 289 284 267 237 226 225 216 227 233 231 227 227 218 206 199 201 200 187 194 199 211 208 207 195 174 179 191 179 177 179 186 183 186 184 183 181 190 189 189 194 195 193 194 192 178 194 200 207 213 208 158 115 99 105 105 35 305 284 284 279 280 272 270 261 255 254 253 254 252 252 255 262
317 318 315 314 313 312 310 310 308 308 301 299 294 290 294 285 263 224 229 230 236 243 231 229 225 229 226 216 201 193 188 195 198 204 213 210 204 186 182 174 185 181 183 185 188 175 164 173 172 186 189 190 192 191 191 193 197 180 188 205 207 207 164 120 124 115 112 151 224 255 256 251 258 257 262 262 258 254 254 257 257 256 259 257 257
316 312 309 307 306 305 305 303 298 290 288 286 277 275 274 264 261 231 223 224 235 241 242 233 234 232 227 227 214 179 186 187 200 205 212 210 212 196 186 178 181 176 185 189 158 161 156 164 174 186 190 187 187 189 193 197 190 200 200 198 191 141 112 132 110 120 118 163 227 245 249 240 232 258 252 249 260 267 270 269 266 264 265 266 263
315 310 308 306 303 301 300 298 292 278 270 260 263 261 255 234 246 232 213 225 226 234 240 226 234 239 237 224 196 202 199 192 192 206 211 215 213 206 192 182 182 176 176 169 155 159 163 169 176 186 189 189 188 191 192 196 190 176 171 159 124 102 112 114 132 114 160 200 215 231 245 241 237 254 262 269 276 277 273 267 264 262 264 264 264
307 304 302 301 301 302 302 298 292 278 263 247 248 249 248 232 227 226 207 223 221 229 235 226 233 238 245 232 213 165 192 52 207 201 208 219 218 212 192 189 182 177 164 157 160 165 170 173 174 182 185 181 175 143 87 141 160 157 142 110 103 116 125 125 137 151 190 202 209 228 241 249 249 264 277 283 280 274 274 274 272 269 265 271 276
300 297 295 296 299 298 296 295 295 294 275 258 247 249 239 233 228 227 214 216 221 225 229 228 231 231 236 236 221 192 180 192 199 207 211 211 204 210 195 191 190 178 160 158 162 167 173 170 169 168 160 153 133 146 139 131 105 83 59 88 113 137 149 155 160 169 181 200 223 234 239 254 269 276 274 272 274 269 270 272 273 273 272 276 277
303 301 299 298 292 292 291 291 293 289 285 263 257 252 239 229 229 226 217 213 216 224 222 223 226 227 231 227 187 186 205 204 201 200 205 205 210 205 191 174 182 170 159 159 159 163 163 164 162 147 128 114 120 91 108 99 103 109 112 125 139 157 188 190 184 171 208 214 237 253 269 258 264 265 273 270 268 273 269 268 271 280 278 282 288
300 295 294 296 293 289 287 287 287 288 284 276 253 245 246 237 232 241 229 220 216 221 220 226 225 224 227 220 200 208 211 213 212 198 199 203 204 202 195 182 178 168 165 158 152 152 145 138 128 145 149 147 142 146 143 140 116 121 120 116 155 174 172 100 162 211 204 209 241 242 251 250 262 268 270 272 267 270 267 267 267 274 288 281 277
296 288 285 282 283 286 289 289 288 286 284 280 278 268 239 237 238 233 248 222 226 227 222 229 221 210 222 225 205 206 210 216 196 196 202 205 209 208 207 188 179 161 167 162 150 152 158 158 161 159 158 157 162 166 158 149 146 144 157 181 162 151 170 185 188 190 198 216 238 244 255 263 272 270 270 267 275 266 265 277 285 285 287 288 290
284 282 282 278 278 283 285 284 283 281 279 277 274 273 280 254 240 244 245 239 228 232 236 237 236 223 212 226 222 222 226 197 195 198 199 203 207 208 207 196 178 166 168 153 151 161 164 167 164 155 158 157 165 169 145 150 152 140 152 170 169 189 193 173 186 178 207 235 248 251 258 261 267 267 269 273 276 280 275 267 269 285 283 287 290
279 280 280 280 280 278 277 275 274 272 272 271 268 268 264 270 266 240 244 247 242 240 239 239 238 236 229 219 210 216 221 213 203 198 198 200 203 206 207 196 179 171 172 157 157 174 173 169 167 168 163 167 171 159 156 147 150 156 151 151 185 183 186 183 192 174 204 230 255 264 263 260 261 264 267 273 278 280 287 290 283 279 281 280 279
277 278 278 278 276 275 272 269 266 266 266 264 264 256 255 254 260 273 244 240 244 241 239 238 238 237 233 229 219 210 203 206 204 201 199 200 201 203 203 195 181 176 165 164 171 167 173 172 169 170 168 170 154 145 152 142 136 152 163 161 161 182 178 191 202 219 219 229 236 250 264 271 268 269 268 273 280 286 289 290 288 283 283 290 291
272 272 274 275 276 272 267 264 265 263 263 265 265 264 256 251 255 256 265 254 242 243 242 239 235 234 234 230 225 221 217 209 204 202 201 200 201 202 201 193 183 179 171 170 165 166 164 169 170 171 173 162 147 135 141 148 157 158 161 172 163 164 172 196 209 216 219 251 259 263 267 261 261 267 272 272 272 279 285 285 289 293 298 297 293
267 265 267 270 268 268 267 264 268 261 256 247 248 249 250 252 247 249 246 245 239 233 227 230 232 229 226 227 226 221 213 211 206 203 203 199 199 199 197 187 187 185 175 169 167 164 168 172 169 172 165 159 155 145 148 153 158 165 163 164 154 152 166 186 204 213 237 251 257 256 254 257 260 265 273 283 286 289 291 293 294 292 295 298 297
269 267 269 268 267 268 269 269 268 271 276 275 274 271 264 254 243 241 241 240 240 237 238 223 217 222 225 225 222 220 215 211 209 205 203 202 198 196 192 190 190 186 168 168 165 168 166 167 162 166 160 149 138 144 151 155 163 153 150 147 150 162 158 177 197 211 232 242 251 265 270 271 271 273 273 273 279 287 293 294 294 297 295 294 294
269 268 267 268 269 272 272 272 268 267 264 263 260 261 252 243 238 235 233 233 234 235 235 226 203 216 224 226 222 218 214 209 207 206 205 203 200 198 196 191 187 166 154 171 166 156 163 165 160 156 155 151 153 143 142 148 152 149 160 155 153 153 165 176 209 215 222 247 263 265 261 262 269 268 276 282 287 288 293 297 298 297 301 300 302
266 268 268 268 266 266 264 263 266 270 274 275 276 274 273 270 253 235 230 228 226 228 227 221 210 208 207 214 202 202 212 208 205 207 208 205 202 199 191 184 177 169 169 157 159 156 158 151 150 149 139 142 137 143 142 142 149 152 153 136 137 144 204 217 256 314 295 272 259 256 260 266 267 274 277 281 289 296 295 294 298 304 304 297 294
263 263 266 270 270 267 260 260 260 258 256 255 251 258 263 265 261 250 237 230 228 224 224 219 214 211 209 197 185 186 192 192 196 200 199 199 197 192 180 169 159 156 152 153 143 146 144 148 146 141 144 142 140 138 148 146 147 149 149 136 135 144 183 215 236 237 247 247 258 259 263 267 270 269 275 282 289 293 294 295 296 301 302 304 304
263 267 271 271 270 268 268 267 266 262 257 256 249 234 237 244 250 249 242 231 228 222 220 216 215 213 201 184 182 180 182 191 193 194 194 193 190 180 161 157 153 141 137 138 142 141 143 136 138 135 131 128 139 134 144 143 147 145 139 140 138 162 191 188 215 238 246 253 255 266 265 268 272 272 278 283 288 289 293 302 305 299 296 296 297
272 274 273 272 267 267 262 258 256 252 251 246 243 238 234 234 235 235 232 230 226 224 217 218 216 210 195 191 189 184 181 188 189 192 193 181 160 149 152 146 137 136 142 147 148 143 128 129 122 124 120 127 125 132 137 136 138 143 135 146 150 171 174 202 226 242 247 254 256 263 269 270 277 285 291 291 295 298 300 302 301 302 299 297 294
265 266 265 263 262 260 255 252 245 246 243 242 233 229 232 233 233 227 226 225 224 220 219 216 213 201 199 195 193 189 184 188 186 163 133 135 137 136 135 133 137 144 147 144 143 139 137 133 121 130 133 127 126 127 136 138 159 156 152 147 156 159 183 218 224 233 243 251 262 264 267 274 280 289 293 296 291 294 303 306 306 306 305 302 300
276 277 276 272 273 273 276 281 285 288 281 261 245 242 241 235 225 222 220 220 219 215 214 211 205 193 194 198 194 193 180 168 132 144 133 128 120 121 124 131 131 131 135 129 129 135 141 137 136 143 131 151 159 163 166 170 164 156 152 148 156 170 202 229 243 244 241 253 263 276 278 278 286 285 288 284 285 300 306 309 309 308 303 301 301
265 266 263 265 265 266 266 264 266 262 262 266 278 277 246 230 223 217 217 215 214 210 209 203 190 182 182 194 194 189 137 137 129 130 126 121 118 118 119 115 118 111 118 116 110 106 125 126 118 99 104 128 133 152 152 160 157 151 151 153 159 183 211 233 239 245 245 264 278 281 282 282 280 285 288 285 296 307 312 311 309 306 304 303 303
263 263 262 262 259 256 256 256 258 259 261 263 257 260 256 233 220 212 209 210 203 198 197 188 177 174 180 185 166 133 126 123 119 116 121 126 126 123 127 122 107 111 94 96 108 120 115 114 119 117 125 116 137 147 161 158 154 150 152 157 166 199 216 226 231 242 251 267 272 273 273 271 280 286 286 285 304 312 312 309 306 303 302 301 302
258 258 256 255 254 251 252 248 249 252 253 248 248 245 237 227 216 207 201 198 191 186 182 168 174 171 148 111 114 118 120 118 115 117 113 119 120 124 125 120 100 107 97 111 107 101 108 108 120 126 129 142 159 164 170 160 161 161 170 179 199 219 228 241 256 263 256 252 260 258 267 272 279 280 279 296 308 311 306 304 301 299 299 302 301
258 251 250 245 248 248 248 248 252 250 249 246 239 235 220 213 206 193 187 174 165 158 155 159 131 105 112 116 115 117 122 119 122 122 126 123 120 119 115 107 105 97 103 107 112 113 119 114 119 136 127 138 144 152 156 158 158 171 180 202 209 234 241 247 245 249 254 257 256 253 261 268 272 267 284 301 310 310 308 302 303 305 304 302 301
257 250 244 235 234 240 242 245 248 250 253 250 224 209 192 172 161 150 141 138 136 135 119 92 102 107 104 103 106 112 115 114 114 116 121 115 113 118 113 107 101 111 109 102 102 105 98 105 114 119 132 145 151 157 150 156 160 182 202 212 222 228 241 243 249 255 255 259 260 257 259 265 262 268 285 299 309 310 307 306 306 303 304 304 304
269 256 246 235 218 226 234 240 241 245 238 210 170 159 151 148 138 130 134 130 127 112 113 118 112 110 106 107 113 111 112 115 120 125 123 110 104 107 106 109 105 104 97 93 104 99 113 114 121 117 133 143 148 144 148 153 185 195 211 215 229 239 247 250 250 255 261 263 253 251 263 262 263 271 284 297 304 304 302 300 302 304 306 305 303
307 302 280 248 224 227 229 234 233 218 181 153 137 122 118 115 116 118 118 108 101 101 105 105 110 111 116 116 117 121 122 121 123 113 108 103 100 95 93 93 97 98 81 94 101 101 97 90 100 121 138 141 150 141 165 190 205 221 234 241 252 257 260 263 266 266 266 265 272 283 277 267 262 273 279 289 297 303 304 304 307 309 307 308 309
338 339 355 10 17 26 49 66 70 68 77 91 93 104 100 98 98 102 101 103 104 103 101 100 103 103 106 114 121 122 123 123 124 113 105 107 110 105 102 93 95 97 90 85 88 104 110 123 143 152 147 142 160 185 198 212 231 231 245 254 259 259 259 263 266 285 297 299 291 282 268 273 284 287 287 296 304 306 305 308 309 310 310 309 310